sat.trackr.live / text

‹ back to catalog

FLOCK 4BE-24

NORAD 60505 · 2024-149AP

PAYLOAD ACTIVE UNKNOWN

§ Identity

Operator
Country
US
Launch date
2024-08-16
Launch site
AFWTR
Launch vehicle
Mass (kg)
RCS (m²)

Purposes: earth_obs

External: N2YO · Heavens-Above · Gunter

§ Orbital elements

Epoch: 2026-09-19T13:05:52.094112Z

Period
93.08 min
Inclination
97.3654°
Eccentricity
0.0002590
Mean motion
15.46991553 rev/d
Perigee alt
423.8 km
Apogee alt
427.3 km
Semi-major
6,803.7 km
B*
6.5218e-4
RAAN
348.3136°
Arg perigee
302.9954°
Mean anomaly
57.1046°
Rev number
11,693

§ Raw data

FLOCK 4BE-241 60505U 24149AP  26262.54574183  .00032918  00000+0  65218-3 0  99982 60505  97.3654 348.3136 0002590 302.9954  57.1046 15.46991553116939

JSON: /api/v1/satellites/60505 · /tle

For live sub-satellite position, see the globe view (requires WebGL).

§ Visibility from observer

Set your observer location to see the next 7 days of passes ≥ 10°. The values pass through the URL so the page stays shareable.

No JS? Fill the form by hand. The geolocation button needs JavaScript.